Volver al catálogo

HULIANWANG DIGUI-10

ActivoComunicacionesPO
NORAD 62332·PAYLOAD·🇨🇳 China

Lanzado Dec 16, 2024 desde Wenchang Space Launch Site

Loading…

Próximos Pases (próximas 24 horas)

TLE

ActualizadoSource: Space-Track

Época: Sep 14, 2026, 21:58 UTC

1 62332U 24240K   26257.91578882  .00000027  00000-0  28427-4 0  9994
2 62332  86.5026 313.1873 0001715  86.9455 273.1876 13.24413464 84516

Sigue HULIANWANG DIGUI-10 en tiempo real con AllMySat

Download on the App Store